Location: Unspecified
(0.0000°N, 0.0000°E)
Time: 04:18:44
(UTC+00:00)

Kitsat-3 - Pass Details

Date: 19 May 2026
Orbit: 698 x 715 km, 98.6° (Epoch: 11 June)

Event Time Altitude Azimuth Distance (km) Brightness Sun altitude
Exits shadow 19:48:58 82° 334° (NNW) 707 7.5 -26.3°
Drops below altitude 10° 19:53:29 10° 347° (NNW) 2,151 10.5 -27.3°
Sets 19:55:43 0° 347° (NNW) 3,067 11.4 -27.9°
